Location: Mahannah Oil Field
(37.4664°N, 96.6003°W)
Time: 15:41:19
(UTC+00:00)

Vanguard 2 Rocket - Pass Details

Date: 29 January 2021
Orbit: 554 x 3325 km, 32.9° (Epoch: 06 March)

Event Time Altitude Azimuth Distance (km) Brightness Sun altitude
Rises 00:36:04 0° 277° (W) 5,745 12.4 -10.1°
Reaches altitude 10° 00:40:42 10° 273° (W) 4,265 11.7 -11.0°
Maximum altitude 00:50:27 45° 205° (SSW) 1,593 8.4 -12.9°
Drops below altitude 10° 00:56:10 10° 133° (SE) 2,525 8.8 -14.0°
Enters shadow 00:57:10 - 129° (SE) 2,860 9.1 -14.2°
Sets 00:58:16 0° 126° (SE) 3,247 - -14.4°
